千帆星座-111(QIANFAN-111)

导读

QIANFAN-111(NORAD编号68638)是中国自主研发的千帆星座(G60星链)组网卫星。千帆星座是中国自主可控的低轨卫星互联网星座,计划分三期部署超1.5万颗卫星,旨在为全球提供低时延、大容量卫星宽带服务。该卫星单星质量小于300千克,设计寿命7年,运行于低地球轨道(LEO),支持Ku频段宽带通信服务。QIANFAN-111于2026年4月随第七批18颗组网卫星由长征八号火箭在海南商业航天发射场成功发射入轨,将为“一带一路”沿线区域提供空天地海一体化互联网接入服务,推动星座一期区域组网建设进程。

基本信息
目录编号:
68638
目录名称:
QIANFAN-111
国际标识:
2026-075C
轨道中心:
EARTH
卫星名称:
千帆星座-111
卫星全名:
千帆星座-111(QIANFAN-111)
卫星状态:
在轨 (已飞行67 天)
发射日期:
2026-04-07 UTC
国别 :
中国 (CN)
星等 :
--
轨道信息
数据来源 国际轨道数据 AOE轨道数据
星历时间 2026-06-13T04:12:22+0800
5小时前
查看轨道信息
2026-06-12T06:00:00+0800
1天前
查看轨道信息
半长轴 7450.68km 7450.689km
偏心率 0.0012525 0.0012547
轨道倾角 88.989° 88.990°
近地点辐角 24.986° 29.072°
升交点赤经 321.436° 321.532°
平近点角 335.190° 157.298°
近地点 1063.211km 1063.203km
远地点 1081.875km 1081.901km
周期 106.673分钟 106.673分钟
每日圈数 13.499228 13.499205
详细信息
卫星平台:
111
覆盖范围:
全球
运营商:
上海垣信卫星科技有限公司
运营商所在国:
中国
使用方式:
暂无
卫星简介
千帆星座,也被称为“G60星链”计划,是中国版“星链”的重要组成部分,旨在打造一个由1.4万多颗低轨宽频多媒体卫星构成的庞大星座。千帆星座计划由上海垣信卫星科技有限公司负责实施,于2023年启动建设。该项目是我国第二个低轨卫星大星座,旨在通过构建庞大的卫星网络,为全球用户提供高质量的通信和宽带互联网服务。
2D轨道图
3D轨道图
轨道高度分析图
轨道倾角分析图
轨道综合分析图
查看轨道综合分析图